This demonstration page uses our WeatherBlox Daily Observations layout. Learn more.

Left ArrowRight Arrow

36.17497, -115.13722

Hourly Observations for March 16, 2016

Temp ( °F °C ) Dew Point ( °F °C ) Humidity (%) Winds ( mph kmh ) Pressure ( in mb ) Visibility ( mi km ) Precip ( " mm )
12:53 am 00:53 Clear 56 13.3 21 -6.1 26 26 WNW 5 7 30.06 1018 10 16.0934 0 0
1:53 am 01:53 Clear 62 16.7 17 -8.3 17 17 NNW 14 22 30.05 1018 10 16.0934 0 0
2:53 am 02:53 Clear 61 16.1 18 -7.8 19 19 N 10 17 30.04 1017 10 16.0934 0 0
3:53 am 03:53 Clear 59 15 19 -7.2 21 21 NNE 7 11 30.06 1018 10 16.0934 0 0
4:53 am 04:53 Clear 58 14.4 20 -6.7 23 23 N 15 24 30.07 1018 10 16.0934 0 0
5:53 am 05:53 Clear 56 13.3 21 -6.1 26 26 SSE 7 11 30.1 1019 10 16.0934 0 0
6:53 am 06:53 Sunny 55 12.8 22 -5.6 28 28 NNW 6 9 30.13 1020 10 16.0934 0 0
7:53 am 07:53 Sunny 54 12.2 22 -5.6 29 29 SSE 5 7 30.15 1021 10 16.0934 0 0
8:53 am 08:53 Sunny 59 15 23 -5 25 25 SW 6 9 30.17 1022 10 16.0934 0 0
9:53 am 09:53 Sunny 63 17.2 22 -5.6 21 21 VRB 3 6 30.17 1022 10 16.0934 0 0
10:53 am 10:53 Sunny 65 18.3 22 -5.6 19 19 VRB 3 6 30.17 1022 10 16.0934 0 0
11:53 am 11:53 Sunny 67 19.4 20 -6.7 17 17 VRB 3 6 30.16 1021 10 16.0934 0 0
12:53 pm 12:53 Sunny 70 21.1 21 -6.1 16 16 E 5 7 30.13 1020 10 16.0934 0 0
1:53 pm 13:53 Sunny 72 22.2 21 -6.1 15 15 Calm 30.09 1019 10 16.0934 0 0
2:53 pm 14:53 Sunny 72 22.2 19 -7.2 13 13 ESE 6 9 30.06 1018 10 16.0934 0 0
3:53 pm 15:53 Sunny 74 23.3 15 -9.4 10 10 ENE 7 11 30.04 1017 10 16.0934 0 0
4:53 pm 16:53 Sunny 74 23.3 12 -11.1 9 9 Calm 30.02 1017 10 16.0934 0 0
5:53 pm 17:53 Sunny 73 22.8 12 -11.1 9 9 Calm 30.01 1016 10 16.0934 0 0
6:53 pm 18:53 Clear 71 21.7 10 -12.2 9 9 ESE 3 6 30.01 1016 10 16.0934 0 0
7:53 pm 19:53 Clear 70 21.1 13 -10.6 11 11 Calm 30 1016 10 16.0934 0 0
8:53 pm 20:53 Clear 67 19.4 14 -10 13 13 WNW 6 9 30.01 1016 10 16.0934 0 0
9:53 pm 21:53 Clear 63 17.2 20 -6.7 19 19 WNW 6 9 30.01 1016 10 16.0934 0 0
10:53 pm 22:53 Clear 61 16.1 21 -6.1 21 21 WNW 6 9 30.01 1016 10 16.0934 0 0
11:53 pm 23:53 Clear 58 14.4 22 -5.6 25 25 N 6 9 30 1016 10 16.0934 0 0

Powered by AerisWeather